Simultaneous Nadir Overpasses (SNOs) Predictions

Prediction of SNOs between GOES-16 and LANDSAT-8 Satellite Orbit:

Table of predicted SNOs for the next 14.0 days since TLE Epoch: 1/4/2020
Index Date Time (GOES-16) GOES-16 Lat,Lon LANDSAT-8 Lat,Lon Distance(km) Time Diff (sec)
1 01/04/2020 15:03:16 0.02, -75.20 -0.58, -72.41 317.44 80
2 01/05/2020 03:22:00 -0.02, -75.20 -0.53, -77.60 273.68 80
3 01/07/2020 03:12:28 -0.02, -75.20 0.09, -74.64 63.39 80
4 01/09/2020 03:00:16 -0.02, -75.21 0.72, -71.69 400.64 80
5 01/09/2020 15:18:52 0.02, -75.22 0.34, -76.85 184.79 80
6 01/11/2020 15:09:20 0.03, -75.23 -0.29, -73.89 152.86 80
7 01/12/2020 03:28:04 -0.02, -75.23 -0.82, -79.08 437.95 80
8 01/13/2020 14:57:07 0.04, -75.24 -0.85, -70.92 490.96 80
9 01/14/2020 03:15:51 -0.03, -75.24 -0.25, -76.11 99.72 80
10 01/16/2020 03:06:19 -0.04, -75.26 0.38, -73.15 239.27 80
11 01/16/2020 15:24:54 0.03, -75.28 0.68, -78.32 345.91 80




NCC Satellite Simultaneous Nadir Overpasses (SNOs) Prediction Service
